NN3A-3 Weather Reports


time (UTC)temp
C
wind
direction
speed
KPH
gust
KPH
rain 1hr
cm
rain 24hr
cm
rain mn
cm
humidity
%
barometer
mb
20260509174016 12 128 0.0 0.0 0.05 0.00 0.46 98 1007.2
20260509173516 11 128 0.0 0.0 0.05 0.00 0.46 98 1007.2
20260509173016 12 128 0.0 0.0 0.05 0.00 0.46 98 1007.2
20260509172517 11 128 0.0 0.0 0.05 0.00 0.46 98 1007.2
20260509172018 11 128 0.0 0.0 0.05 0.00 0.46 98 1007.2
20260509171517 11 128 0.0 0.0 0.05 0.00 0.46 98 1007.2
20260509171018 12 128 0.0 0.0 0.05 0.00 0.46 98 1007.2
20260509170517 11 128 0.0 0.0 0.05 0.00 0.46 98 1007.2
20260509165518 10 128 0.0 0.0 0.05 0.00 0.46 98 1007.2
20260509165018 12 128 0.0 0.0 0.05 0.00 0.46 98 1007.2
20260509164519 11 128 0.0 0.0 0.05 0.00 0.46 98 1007.2
20260509164018 11 128 0.0 0.0 0.03 0.00 0.43 99 1007.2
20260509163518 11 128 0.0 0.0 0.03 0.00 0.43 99 1007.6
20260509163019 12 128 0.0 0.0 0.03 0.00 0.43 99 1007.6
20260509162518 11 128 0.0 0.0 0.03 0.00 0.43 99 1007.6
20260509162019 11 128 0.0 0.0 0.03 0.00 0.43 99 1007.6
20260509161519 12 128 0.0 0.0 0.03 0.00 0.43 99 1007.6
20260509160519 11 128 0.0 0.0 0.03 0.00 0.43 99 1007.6
20260509155522 11 128 0.0 0.0 0.03 0.00 0.43 99 1007.6
20260509154021 11 128 0.0 0.0 0.00 0.00 0.41 98 1007.6
20260509153521 12 128 0.0 0.0 0.00 0.00 0.41 99 1007.9
20260509152522 11 128 0.0 0.0 0.00 0.00 0.41 99 1007.6
20260509152021 12 128 0.0 0.0 0.00 0.00 0.41 99 1007.9
20260509151522 12 128 0.0 0.0 0.00 0.00 0.41 99 1007.6
20260509150522 11 128 0.0 0.0 0.00 0.00 0.41 99 1007.6
20260509150022 11 128 0.0 0.0 0.00 0.00 0.38 99 1007.6
20260509145522 11 128 0.0 0.0 0.00 0.00 0.38 99 1007.6
20260509145022 10 128 0.0 0.0 0.00 0.00 0.38 99 1007.6
20260509144522 11 128 0.0 0.0 0.00 0.00 0.38 99 1007.6
20260509144023 11 128 0.0 0.0 0.08 0.00 0.38 99 1007.9
20260509143522 11 128 0.0 0.0 0.08 0.00 0.38 98 1007.6
20260509143022 11 128 0.0 0.0 0.08 0.00 0.38 99 1007.6
20260509142523 11 128 0.0 0.0 0.08 0.00 0.38 99 1007.6
20260509142023 11 128 0.0 0.0 0.08 0.00 0.38 99 1007.6
20260509141523 11 128 0.0 0.0 0.08 0.00 0.38 99 1007.6
20260509141023 11 128 0.0 0.0 0.08 0.00 0.38 99 1007.6
20260509140524 10 128 0.0 0.0 0.08 0.00 0.38 99 1007.6
20260509140023 11 128 0.0 0.0 0.08 0.00 0.38 99 1007.6
20260509135524 11 128 0.0 0.0 0.08 0.00 0.38 99 1007.9
20260509135024 11 128 0.0 0.0 0.08 0.00 0.38 99 1008.3
20260509134524 11 128 0.0 0.0 0.08 0.00 0.38 99 1007.9
20260509134024 10 128 0.0 0.0 0.08 0.00 0.36 99 1008.3
20260509133524 11 128 0.0 0.0 0.08 0.00 0.36 99 1008.3
20260509132525 11 128 0.0 0.0 0.08 0.00 0.33 99 1007.9
20260509132025 11 128 0.0 0.0 0.08 0.00 0.33 99 1007.9
20260509131025 10 128 0.0 0.0 0.08 0.00 0.33 99 1007.9
20260509130526 11 128 0.0 0.0 0.08 0.00 0.30 99 1008.3
20260509130025 10 128 0.0 0.0 0.08 0.00 0.30 99 1008.3
20260509125525 10 128 0.0 0.0 0.08 0.00 0.30 99 1008.3
20260509125026 10 128 0.0 0.0 0.08 0.00 0.30 99 1008.3
20260509124526 10 128 0.0 0.0 0.08 0.00 0.30 99 1008.3
20260509124026 10 128 0.0 0.0 0.05 0.00 0.30 99 1008.3
20260509123527 10 128 0.0 0.0 0.05 0.00 0.30 99 1008.3
20260509123026 10 128 0.0 0.0 0.05 0.00 0.28 98 1008.3
20260509122526 10 128 0.0 0.0 0.05 0.00 0.28 98 1008.3
20260509122026 10 128 0.0 0.0 0.05 0.00 0.28 98 1008.3
20260509121527 10 128 0.0 0.0 0.05 0.00 0.25 98 1008.3
20260509121027 10 128 0.0 0.0 0.05 0.00 0.25 98 1008.3
20260509120527 10 128 0.0 0.0 0.05 0.00 0.23 98 1008.3
20260509120027 10 128 0.0 0.0 0.05 0.00 0.23 98 1008.3
20260509115527 10 128 0.0 0.0 0.05 0.00 0.23 98 1008.3
20260509115027 10 128 0.0 0.0 0.05 0.00 0.23 98 1008.3
20260509114527 10 128 0.0 0.0 0.05 0.00 0.23 98 1008.3
20260509114028 10 128 0.0 0.0 0.10 0.00 0.20 98 1008.3
20260509113528 9 128 0.0 0.0 0.10 0.00 0.20 98 1008.3
20260509113028 10 128 0.0 0.0 0.10 0.00 0.20 98 1008.3
20260509112528 10 128 0.0 0.0 0.10 0.00 0.20 97 1008.3
20260509112028 9 128 0.0 0.0 0.10 0.00 0.20 97 1008.3
20260509111029 9 128 0.0 0.0 0.10 0.00 0.20 97 1008.3
20260509110528 9 128 0.0 0.0 0.10 0.00 0.20 97 1008.3
20260509110028 10 128 0.0 0.0 0.10 0.00 0.20 97 1008.3
20260509105529 10 128 0.0 0.0 0.10 0.00 0.20 97 1008.3
20260509105029 10 128 0.0 0.0 0.10 0.00 0.18 96 1008.3
20260509104529 10 128 0.0 0.0 0.10 0.00 0.18 96 1008.3
20260509104028 10 128 0.0 0.0 0.08 0.00 0.18 96 1008.3
20260509103529 10 128 0.0 0.0 0.08 0.00 0.18 96 1008.3
20260509103029 9 128 0.0 0.0 0.08 0.00 0.18 96 1008.6
20260509102529 10 128 0.0 0.0 0.08 0.00 0.18 95 1008.6
20260509102029 10 128 0.0 0.0 0.08 0.00 0.15 95 1008.6
20260509101529 10 128 0.0 0.0 0.08 0.00 0.15 95 1008.6
20260509101029 10 128 0.0 0.0 0.08 0.00 0.15 95 1008.6
20260509100531 10 128 0.0 0.0 0.08 0.00 0.13 94 1008.3
20260509100031 10 128 0.0 0.0 0.08 0.00 0.13 94 1008.6
20260509095531 10 128 0.0 0.0 0.08 0.00 0.10 94 1008.6
20260509095030 10 128 0.0 0.0 0.08 0.00 0.10 94 1008.6
20260509094531 10 128 0.0 0.0 0.08 0.00 0.08 94 1008.6
20260509094031 11 128 0.0 0.0 0.00 0.00 0.08 94 1008.6
20260509093532 10 128 0.0 0.0 0.00 0.00 0.08 93 1008.6
20260509093031 10 128 0.0 0.0 0.00 0.00 0.05 93 1008.6
20260509092532 10 128 0.0 0.0 0.00 0.00 0.05 93 1008.6
20260509092033 10 128 0.0 0.0 0.00 0.00 0.05 92 1008.6
20260509091532 10 128 0.0 0.0 0.00 0.00 0.03 93 1008.6
20260509091031 11 128 0.0 0.0 0.00 0.00 0.03 92 1008.3
20260509090531 10 128 0.0 0.0 0.00 0.00 0.03 92 1008.3
20260509090032 11 128 0.0 0.0 0.00 0.00 0.00 92 1008.3
20260509085532 11 128 0.0 0.0 0.00 0.00 0.00 91 1008.3
20260509085033 11 128 0.0 0.0 0.00 0.00 0.00 91 1008.3
20260509084532 11 128 0.0 0.0 0.00 0.00 0.00 90 1008.3
20260509084033 11 128 0.0 0.0 0.00 0.00 0.00 89 1007.9
20260509083534 10 128 0.0 0.0 0.00 0.00 0.00 88 1007.9
20260509083033 11 128 0.0 0.0 0.00 0.00 0.00 88 1007.9
20260509082533 10 128 0.0 0.0 0.00 0.00 0.00 87 1007.6
20260509082033 11 128 0.0 0.0 0.00 0.00 0.00 89 1007.6
20260509081534 10 128 0.0 0.0 0.00 0.00 0.00 89 1007.6
20260509081034 10 128 0.0 0.0 0.00 0.00 0.00 89 1007.6
20260509080535 11 128 0.0 0.0 0.00 0.00 0.00 89 1007.2
20260509080034 11 128 0.0 0.0 0.00 0.00 0.00 88 1007.2
20260509075534 10 128 0.0 0.0 0.00 0.00 0.00 89 1007.2
20260509074535 10 128 0.0 0.0 0.00 0.00 0.00 90 1007.2
20260509074035 10 128 0.0 0.0 0.00 0.00 0.00 90 1007.2
20260509073035 11 128 0.0 0.0 0.00 0.00 0.00 91 1007.2
20260509072035 10 128 0.0 0.0 0.00 0.00 0.00 91 1007.2
20260509071536 11 128 0.0 0.0 0.00 0.00 0.00 91 1007.2
20260509071036 10 128 0.0 0.0 0.00 0.00 0.00 91 1007.2
20260509070536 11 128 0.0 0.0 0.00 0.00 0.00 91 1007.2
20260509065036 10 128 0.0 0.0 0.00 0.00 0.00 91 1007.2
20260509064536 10 128 0.0 0.0 0.00 0.00 0.00 91 1007.2
20260509064036 11 128 0.0 0.0 0.00 0.00 0.00 92 1007.2
20260509063537 10 128 0.0 0.0 0.00 0.00 0.00 92 1007.6
20260509062537 11 128 0.0 0.0 0.00 0.00 0.00 92 1007.9
20260509061537 11 128 0.0 0.0 0.00 0.00 0.00 91 1008.3
20260509060538 11 128 0.0 0.0 0.00 0.00 0.00 91 1008.3
20260509055538 11 128 0.0 0.0 0.00 0.00 0.00 91 1008.6
20260509054538 11 128 0.0 0.0 0.00 0.00 0.00 91 1008.6
20260509054039 11 128 0.0 0.0 0.00 0.00 0.00 91 1008.6
20260509053539 11 128 0.0 0.0 0.00 0.00 0.00 91 1008.6
20260509053039 11 128 0.0 0.0 0.00 0.00 0.00 91 1008.6
20260509052539 11 128 0.0 0.0 0.00 0.00 0.00 91 1008.9
20260509052039 11 128 0.0 0.0 0.00 0.00 0.00 91 1008.9
20260509051539 11 128 0.0 0.0 0.00 0.00 0.00 91 1008.9
20260509050540 11 128 0.0 0.0 0.00 0.00 0.00 91 1009.3
20260509050039 11 128 0.0 0.0 0.00 0.00 0.00 91 1009.3
20260509045540 11 128 0.0 0.0 0.00 0.00 0.00 91 1008.9
20260509045040 11 128 0.0 0.0 0.00 0.00 0.00 91 1008.9
20260509044540 11 128 0.0 0.0 0.00 0.00 0.00 91 1008.9
20260509043541 11 128 0.0 0.0 0.00 0.00 0.00 90 1008.9
20260509043040 11 128 0.0 0.0 0.00 0.00 0.00 90 1008.9
20260509042540 12 128 0.0 0.0 0.00 0.00 0.00 90 1008.9
20260509042041 11 128 0.0 0.0 0.00 0.00 0.00 90 1008.9
20260509040541 12 128 0.0 0.0 0.00 0.00 0.00 89 1009.3
20260509040041 12 128 0.0 0.0 0.00 0.00 0.00 89 1009.3
20260509035542 12 128 0.0 0.0 0.00 0.00 0.00 89 1009.3
20260509034544 12 128 0.0 0.0 0.00 0.00 0.00 88 1009.3
20260509033542 11 128 0.0 0.0 0.00 0.00 0.00 88 1009.3
20260509033042 12 128 0.0 0.0 0.00 0.00 0.00 87 1009.3
20260509032042 11 128 0.0 0.0 0.00 0.00 0.00 86 1008.9
20260509031542 12 128 0.0 0.0 0.00 0.00 0.00 86 1009.3
20260509031043 12 128 0.0 0.0 0.00 0.00 0.00 85 1009.3
20260509030543 12 128 0.0 0.0 0.00 0.00 0.00 86 1009.3
20260509030043 12 128 0.0 0.0 0.00 0.00 0.00 85 1009.3
20260509025543 12 128 0.0 0.0 0.00 0.00 0.00 85 1009.3
20260509025043 12 128 0.0 0.0 0.00 0.00 0.00 86 1009.3
20260509024544 12 128 0.0 0.0 0.00 0.00 0.00 86 1009.3
20260509024044 12 128 0.0 0.0 0.00 0.00 0.00 86 1009.3
20260509023544 12 128 0.0 0.0 0.00 0.00 0.00 86 1009.3
20260509022545 12 128 0.0 0.0 0.00 0.00 0.00 86 1009.3
20260509022044 12 128 0.0 0.0 0.00 0.00 0.00 86 1009.3
20260509021544 11 128 0.0 0.0 0.00 0.00 0.00 85 1009.3
20260509021044 11 128 0.0 0.0 0.00 0.00 0.00 85 1009.3
20260509020545 12 128 0.0 0.0 0.00 0.00 0.00 85 1009.3
20260509020045 12 128 0.0 0.0 0.00 0.00 0.00 86 1008.9
20260509015545 12 128 0.0 0.0 0.00 0.00 0.00 86 1008.9
20260509015045 12 128 0.0 0.0 0.00 0.00 0.00 86 1008.9
20260509014545 12 128 0.0 0.0 0.00 0.00 0.00 86 1008.9
20260509014045 13 128 0.0 0.0 0.00 0.00 0.00 86 1008.9
20260509013546 12 128 0.0 0.0 0.00 0.00 0.00 86 1008.9
20260509013046 12 128 0.0 0.0 0.00 0.00 0.00 86 1008.9
20260509012546 13 128 0.0 0.0 0.00 0.00 0.00 84 1008.9
20260509012046 12 128 0.0 0.0 0.00 0.00 0.00 85 1008.9
20260509011546 12 128 0.0 0.0 0.00 0.00 0.00 84 1009.3
20260509011046 12 128 0.0 0.0 0.00 0.00 0.00 84 1008.9
20260509010547 12 128 0.0 0.0 0.00 0.00 0.00 84 1008.9
20260509010046 13 128 0.0 0.0 0.00 0.00 0.00 84 1008.9
20260509005547 13 128 0.0 0.0 0.00 0.00 0.00 84 1008.9
20260509005047 12 128 0.0 0.0 0.00 0.00 0.00 84 1008.9
20260509004047 13 128 0.0 0.0 0.00 0.00 0.00 83 1008.9
20260509003548 13 128 0.0 0.0 0.00 0.00 0.00 83 1008.6
20260509003047 12 128 0.0 0.0 0.00 0.00 0.00 82 1008.6
20260509002548 13 128 0.0 0.0 0.00 0.00 0.00 81 1008.6
20260509002048 13 128 0.0 0.0 0.00 0.00 0.00 80 1008.6
20260509001548 13 128 0.0 0.0 0.00 0.00 0.00 80 1008.6
20260509001048 13 128 0.0 0.0 0.00 0.00 0.00 79 1008.6
20260509000549 13 128 0.0 0.0 0.00 0.00 0.00 79 1008.9
20260509000049 13 128 0.0 0.0 0.00 0.00 0.00 80 1008.9
20260508235548 13 128 0.0 0.0 0.00 0.00 0.00 81 1008.6
20260508235049 13 128 0.0 0.0 0.00 0.00 0.00 81 1008.6
20260508234549 13 128 0.0 0.0 0.00 0.00 0.00 81 1008.6
20260508234049 14 128 0.0 0.0 0.00 0.00 0.00 80 1008.6
20260508233549 13 128 0.0 0.0 0.00 0.00 0.00 80 1008.6
20260508233049 13 128 0.0 0.0 0.00 0.00 0.00 80 1008.6
20260508232549 13 128 0.0 0.0 0.00 0.00 0.00 79 1008.6
20260508232049 14 128 0.0 0.0 0.00 0.00 0.00 79 1008.6
20260508231550 13 128 0.0 0.0 0.00 0.00 0.00 78 1008.6
20260508231050 13 128 0.0 0.0 0.00 0.00 0.00 78 1008.6
20260508230550 13 128 0.0 0.0 0.00 0.00 0.00 78 1008.6
20260508230050 13 128 0.0 0.0 0.00 0.00 0.00 78 1008.6
20260508225550 13 128 0.0 0.0 0.00 0.00 0.00 77 1008.6
20260508225050 14 128 0.0 0.0 0.00 0.00 0.00 76 1008.6
20260508224550 13 128 0.0 0.0 0.00 0.00 0.00 75 1008.6
20260508224050 13 128 0.0 0.0 0.00 0.00 0.00 74 1008.6
20260508223550 14 128 0.0 0.0 0.00 0.00 0.00 73 1008.6
20260508223051 14 128 0.0 0.0 0.00 0.00 0.00 73 1008.6
20260508222552 13 128 0.0 0.0 0.00 0.00 0.00 74 1008.6
20260508222051 14 128 0.0 0.0 0.00 0.00 0.00 75 1008.6
20260508220551 14 128 0.0 0.0 0.00 0.00 0.00 75 1008.6
20260508220051 13 128 0.0 0.0 0.00 0.00 0.00 76 1008.9
20260508215051 14 128 0.0 0.0 0.00 0.00 0.00 76 1008.9
20260508214551 13 128 0.0 0.0 0.00 0.00 0.00 77 1009.3
20260508214052 13 128 0.0 0.0 0.00 0.00 0.00 77 1009.3
20260508213553 13 128 0.0 0.0 0.00 0.00 0.00 77 1009.3
20260508213053 13 128 0.0 0.0 0.00 0.00 0.00 77 1009.3
20260508212553 14 128 0.0 0.0 0.00 0.00 0.00 77 1009.3
20260508212053 13 128 0.0 0.0 0.00 0.00 0.00 76 1009.3
20260508211553 13 128 0.0 0.0 0.00 0.00 0.00 78 1009.3
20260508211053 13 128 0.0 0.0 0.00 0.00 0.00 78 1009.3
20260508210054 13 128 0.0 0.0 0.00 0.00 0.00 78 1009.6
20260508205554 13 128 0.0 0.0 0.00 0.00 0.00 77 1009.6
20260508205054 13 128 0.0 0.0 0.00 0.00 0.00 77 1009.6
20260508204554 13 128 0.0 0.0 0.00 0.00 0.00 76 1009.6
20260508203555 13 128 0.0 0.0 0.00 0.00 0.00 76 1010.0
20260508203054 13 128 0.0 0.0 0.00 0.00 0.00 75 1010.0
20260508202555 13 128 0.0 0.0 0.00 0.00 0.00 75 1010.0
20260508202055 13 128 0.0 0.0 0.00 0.00 0.00 75 1010.0
20260508201555 13 128 0.0 0.0 0.00 0.00 0.00 75 1010.0
20260508201055 13 128 0.0 0.0 0.00 0.00 0.00 75 1010.0
20260508200556 14 128 0.0 0.0 0.00 0.00 0.00 74 1010.0
20260508200055 13 128 0.0 0.0 0.00 0.00 0.00 75 1010.0
20260508194556 13 128 0.0 0.0 0.00 0.00 0.00 74 1010.3
20260508194056 14 128 0.0 0.0 0.00 0.00 0.00 73 1010.3
20260508193056 14 128 0.0 0.0 0.00 0.00 0.00 73 1010.3
20260508192556 14 128 0.0 0.0 0.00 0.00 0.00 72 1010.3
20260508191557 14 128 0.0 0.0 0.00 0.00 0.00 70 1010.3
20260508191057 14 128 0.0 0.0 0.00 0.00 0.00 70 1010.3
20260508190057 14 128 0.0 0.0 0.00 0.00 0.00 69 1010.3
20260508185557 14 128 0.0 0.0 0.00 0.00 0.00 68 1010.3
20260508185058 15 128 0.0 0.0 0.00 0.00 0.00 68 1010.3
20260508184557 14 128 0.0 0.0 0.00 0.00 0.00 68 1010.0
20260508184058 14 128 0.0 0.0 0.00 0.00 0.00 68 1010.3
20260508183559 14 128 0.0 0.0 0.00 0.00 0.00 68 1010.3
20260508183058 15 128 0.0 0.0 0.00 0.00 0.00 67 1010.3
20260508182059 15 128 0.0 0.0 0.00 0.00 0.00 67 1010.0
20260508181558 15 128 0.0 0.0 0.00 0.00 0.00 66 1010.3
20260508181059 15 128 0.0 0.0 0.00 0.00 0.00 66 1010.3
20260508180559 15 128 0.0 0.0 0.00 0.00 0.00 66 1010.3
20260508180059 15 128 0.0 0.0 0.00 0.00 0.00 65 1010.3
20260508175559 15 128 0.0 0.0 0.00 0.00 0.00 65 1010.3
20260508175059 15 128 0.0 0.0 0.00 0.00 0.00 66 1010.3
20260508174559 15 128 0.0 0.0 0.00 0.00 0.00 65 1010.3